Weather History for Hayward, CA

Change the Weather History Date:

Sunday, July 14, 2013

  Actual Average Record
Temperature  
Mean Temperature 63 °F 65 °F  
Max Temperature 70 °F 73 °F 93 °F (2009)
Min Temperature 55 °F 58 °F 55 °F (2013)
Degree Days  
Heating Degree Days 2    
Month to date heating degree days 8  
Since 1 June heating degree days 55  
Since 1 July heating degree days 8  
Cooling Degree Days 0    
Month to date cooling degree days 43  
Year to date cooling degree days 143  
Since 1 June cooling degree days 96  
Growing Degree Days 12 (Base 50)    
Moisture  
Dew Point 53 °F    
Average Humidity 75    
Maximum Humidity 93    
Minimum Humidity 57    
Precipitation  
Precipitation 0.00 in - 0.00 in (2014)
Month to date precipitation 0.00  
Year to date precipitation 1.49  
Since 1 July precipitation 0.00  
Sea Level Pressure  
Sea Level Pressure 29.99 in    
Wind  
Wind Speed 9 mph (NW)    
Max Wind Speed 18 mph    
Max Gust Speed 23 mph    
Visibility 10 miles    
Events      
T = Trace of Precipitation, MM = Missing Value Source: NWS Daily Summary

Daily Weather History Graph

Daily Weather History Graph

Search for Another Location

Airport:

Trip Planner

Search our weather history database for the weather conditions in past years. The results will help you decide how hot, cold, wet, or windy it might be!

Date:

Astronomy

Jul. 14, 2013 Rise Set
Actual Time 5:58 AM PDT 8:30 PM PDT
Civil Twilight 5:28 AM PDT 9:00 PM PDT
Nautical Twilight 4:50 AM PDT 9:38 PM PDT
Astronomical Twilight 4:08 AM PDT 10:19 PM PDT
Moon 12:12 PM PDT (7/14) 11:54 PM PDT (7/14)
Length of Visible Light 15h 32m
Length of Day
14h 31m
Waxing Crescent, 36% of the Moon is Illuminated
Jul 14
Waxing Crescent
Jul 15
First Quarter
Jul 22
Full
Jul 29
Last Quarter
Aug 6
New

Hourly Weather History & Observations

Time (PDT) Temp. Dew Point Humidity Pressure Visibility Wind Dir Wind Speed Gust Speed Precip Events Conditions
12:54 AM 55.9 °F 52.0 °F 87% 30.00 in 10.0 mi NNW 4.6 mph - N/A   Clear
1:54 AM 55.9 °F 52.0 °F 87% 29.99 in 10.0 mi North 5.8 mph - N/A   Clear
2:54 AM 55.0 °F 52.0 °F 89% 29.99 in 9.0 mi NNW 8.1 mph - N/A   Clear
3:34 AM 55.4 °F 51.8 °F 88% 29.96 in 10.0 mi NW 8.1 mph - N/A   Mostly Cloudy
3:47 AM 55.4 °F 51.8 °F 88% 29.96 in 10.0 mi NW 6.9 mph - N/A   Mostly Cloudy
3:54 AM 55.0 °F 52.0 °F 89% 29.99 in 10.0 mi NNW 8.1 mph - N/A   Mostly Cloudy
4:54 AM 55.9 °F 52.0 °F 87% 30.00 in 9.0 mi NNW 4.6 mph - N/A   Overcast
5:54 AM 55.9 °F 53.1 °F 90% 30.01 in 10.0 mi North 4.6 mph - N/A   Overcast
6:54 AM 57.0 °F 53.1 °F 87% 30.01 in 9.0 mi North 4.6 mph - N/A   Overcast
7:54 AM 57.9 °F 53.1 °F 84% 30.03 in 10.0 mi West 5.8 mph - N/A   Overcast
8:33 AM 59.0 °F 53.6 °F 82% 30.01 in 10.0 mi West 5.8 mph - N/A   Overcast
8:54 AM 59.0 °F 53.1 °F 81% 30.04 in 10.0 mi West 6.9 mph - N/A   Overcast
9:54 AM 59.0 °F 53.1 °F 81% 30.04 in 10.0 mi West 5.8 mph - N/A   Overcast
10:54 AM 62.1 °F 53.1 °F 72% 30.04 in 10.0 mi NW 6.9 mph - N/A   Mostly Cloudy
11:01 AM 62.6 °F 53.6 °F 72% 30.01 in 10.0 mi Variable 3.5 mph - N/A   Scattered Clouds
11:54 AM 64.9 °F 54.0 °F 68% 30.04 in 10.0 mi WNW 9.2 mph - N/A   Clear
12:54 PM 68.0 °F 54.0 °F 61% 30.03 in 10.0 mi NW 10.4 mph 18.4 mph N/A   Clear
1:54 PM 69.1 °F 54.0 °F 58% 30.01 in 10.0 mi WNW 15.0 mph - N/A   Clear
2:54 PM 69.1 °F 54.0 °F 58% 30.00 in 10.0 mi WNW 15.0 mph - N/A   Clear
3:54 PM 68.0 °F 54.0 °F 61% 29.98 in 10.0 mi West 16.1 mph - N/A   Clear
4:54 PM 66.0 °F 53.1 °F 63% 29.97 in 10.0 mi WNW 16.1 mph - N/A   Clear
5:54 PM 64.9 °F 53.1 °F 65% 29.95 in 10.0 mi NW 12.7 mph - N/A   Clear
6:54 PM 64.0 °F 53.1 °F 67% 29.95 in 10.0 mi WNW 11.5 mph - N/A   Clear
7:54 PM 60.1 °F 52.0 °F 75% 29.95 in 10.0 mi NW 11.5 mph - N/A   Clear
8:54 PM 57.0 °F 52.0 °F 83% 29.96 in 10.0 mi NW 9.2 mph - N/A   Clear
9:54 PM 55.0 °F 52.0 °F 89% 29.98 in 10.0 mi NW 9.2 mph - N/A   Clear
10:47 PM 55.4 °F 51.8 °F 88% 29.95 in 10.0 mi NNW 6.9 mph - N/A   Scattered Clouds
10:54 PM 55.0 °F 52.0 °F 89% 29.98 in 10.0 mi NNW 6.9 mph - N/A   Scattered Clouds
11:03 PM 55.4 °F 51.8 °F 88% 29.94 in 10.0 mi North 9.2 mph - N/A   Mostly Cloudy
11:11 PM 55.4 °F 51.8 °F 88% 29.94 in 10.0 mi North 8.1 mph - N/A   Overcast
11:54 PM 55.9 °F 52.0 °F 87% 29.97 in 10.0 mi NNW 8.1 mph - N/A   Overcast